TimeCDT,TemperatureF,Dew PointF,Humidity,Sea Level PressureIn,VisibilityMPH,Wind Direction,Wind SpeedMPH,Gust SpeedMPH,PrecipitationIn,Events,Conditions,WindDirDegrees,DateUTC
12:43 AM,33.8,32.0,93,30.49,1.5,North,20.7,28.8,0.01,Snow,Light Snow,360,2013-05-02 05:43:00
12:53 AM,33.1,32.0,96,30.55,1.2,North,19.6,32.2,0.01,Snow,Light Snow,360,2013-05-02 05:53:00
1:14 AM,33.8,32.0,93,30.52,1.5,North,19.6,-,0.01,Snow,Light Snow,360,2013-05-02 06:14:00
1:24 AM,33.8,32.0,93,30.52,1.2,North,17.3,24.2,0.01,Snow,Light Snow,360,2013-05-02 06:24:00
1:37 AM,33.8,32.0,93,30.52,1.2,North,15.0,21.9,0.02,Snow,Light Snow,360,2013-05-02 06:37:00
1:53 AM,33.1,33.1,100,30.57,2.0,North,15.0,-,0.02,Snow,Light Snow,10,2013-05-02 06:53:00
2:00 AM,33.8,33.8,100,30.52,3.0,North,12.7,-,0.00,Snow,Light Snow,350,2013-05-02 07:00:00
2:45 AM,33.8,32.0,93,30.54,2.0,North,18.4,26.5,0.02,Snow,Light Snow,350,2013-05-02 07:45:00
2:53 AM,33.1,32.0,96,30.60,1.8,North,15.0,25.3,0.02,Snow,Light Snow,360,2013-05-02 07:53:00
3:16 AM,33.8,32.0,93,30.55,1.8,North,21.9,-,0.01,Snow,Light Snow,360,2013-05-02 08:16:00
3:28 AM,33.8,32.0,93,30.56,1.5,North,24.2,32.2,0.01,Snow,Light Snow,10,2013-05-02 08:28:00
3:38 AM,33.8,32.0,93,30.55,2.0,North,15.0,24.2,0.01,Snow,Light Snow,350,2013-05-02 08:38:00
3:53 AM,33.1,33.1,100,30.60,6.0,North,19.6,23.0,0.01,Snow,Light Snow,360,2013-05-02 08:53:00
4:03 AM,33.8,32.0,93,30.54,8.0,North,21.9,28.8,0.00,Snow,Light Snow,360,2013-05-02 09:03:00
4:53 AM,34.0,32.0,92,30.63,10.0,North,15.0,-,0.00,,Overcast,350,2013-05-02 09:53:00
5:53 AM,35.1,30.0,82,30.62,10.0,North,17.3,27.6,N/A,,Overcast,10,2013-05-02 10:53:00
6:53 AM,35.1,30.0,82,30.66,10.0,North,17.3,-,0.01,,Overcast,360,2013-05-02 11:53:00
7:53 AM,35.1,32.0,89,30.67,10.0,NNW,11.5,-,N/A,,Overcast,330,2013-05-02 12:53:00
8:53 AM,36.0,32.0,86,30.69,10.0,NNW,9.2,-,N/A,,Overcast,330,2013-05-02 13:53:00
9:53 AM,39.0,33.1,79,30.68,10.0,NNW,13.8,-,N/A,,Overcast,330,2013-05-02 14:53:00
10:53 AM,44.1,34.0,68,30.67,10.0,North,17.3,24.2,N/A,,Overcast,350,2013-05-02 15:53:00
12:53 PM,50.0,28.0,43,30.65,10.0,North,17.3,27.6,N/A,,Scattered Clouds,10,2013-05-02 17:53:00
1:53 PM,51.1,26.1,38,30.63,10.0,North,20.7,26.5,N/A,,Mostly Cloudy,350,2013-05-02 18:53:00
2:53 PM,53.1,26.1,35,30.60,10.0,NNW,18.4,34.5,N/A,,Scattered Clouds,340,2013-05-02 19:53:00
3:53 PM,54.0,23.0,30,30.57,10.0,NNW,18.4,26.5,N/A,,Scattered Clouds,340,2013-05-02 20:53:00
4:53 PM,52.0,21.9,31,30.56,10.0,North,16.1,25.3,N/A,,Overcast,10,2013-05-02 21:53:00
5:53 PM,54.0,21.9,29,30.53,10.0,North,17.3,26.5,N/A,,Overcast,360,2013-05-02 22:53:00
6:53 PM,54.0,21.9,29,30.51,10.0,NNE,16.1,-,N/A,,Mostly Cloudy,30,2013-05-02 23:53:00
7:53 PM,48.9,24.1,38,30.51,10.0,NNE,8.1,-,N/A,,Mostly Cloudy,20,2013-05-03 00:53:00
8:53 PM,39.0,28.0,65,30.52,10.0,North,5.8,-,N/A,,Mostly Cloudy,350,2013-05-03 01:53:00
9:53 PM,45.0,28.0,52,30.51,10.0,NNW,13.8,-,N/A,,Overcast,330,2013-05-03 02:53:00
10:53 PM,37.0,28.9,73,30.50,10.0,North,9.2,-,N/A,,Clear,360,2013-05-03 03:53:00
11:53 PM,33.1,28.0,82,30.48,10.0,NNW,6.9,-,N/A,,Clear,340,2013-05-03 04:53:00